Sabula, IA

4:37 AM CST on February 12, 2016 (GMT -0600)
Tri-Township

Weather History for KSFY - January, 2013

Change the Weather History Date:

Friday, January 25, 2013

  Actual Average (KCWI) Record (KCWI)
Temperature  
Mean Temperature 26 °F -  
Max Temperature 34 °F 31 °F 61 °F (1981)
Min Temperature 17 °F 12 °F -18 °F (2008)
Degree Days  
Heating Degree Days 39    
Moisture  
Dew Point 12 °F    
Average Humidity 61    
Maximum Humidity 86    
Minimum Humidity 45    
Precipitation  
Precipitation 0.00 in - - ()
Sea Level Pressure  
Sea Level Pressure 30.11 in    
Wind  
Wind Speed 11 mph (WSW)    
Max Wind Speed 24 mph    
Max Gust Speed 32 mph    
Visibility 10 miles    
Events Snow    
Averages and records for this station are not official NWS values.
T = Trace of Precipitation, MM = Missing Value Source: NWS Daily Summary

Daily Weather History Graph

Daily Weather History Graph

Search for Another Location

Airport or City:

Trip Planner

Search our weather history database for the weather conditions in past years. The results will help you decide how hot, cold, wet, or windy it might be!

Date:

Astronomy

Jan. 25, 2013 Rise Set
Actual Time 7:19 AM CST 5:06 PM CST
Civil Twilight 6:49 AM CST 5:36 PM CST
Nautical Twilight 6:15 AM CST 6:10 PM CST
Astronomical Twilight 5:42 AM CST 6:43 PM CST
Moon 4:03 PM CST (1/25) 5:59 AM CST (1/25)
Length of Visible Light 10h 47m
Length of Day
9h 47m
Waxing Gibbous, 98% of the Moon is Illuminated
Jan 25
Waxing Gibbous
Jan 26
Full
Feb 3
Last Quarter
Feb 10
New
Feb 17
First Quarter

Hourly Weather History & Observations

Time (CST) Temp. Windchill Dew Point Humidity Pressure Visibility Wind Dir Wind Speed Gust Speed Precip Events Conditions
12:15 AM 22.1 °F 11.3 °F 5.9 °F 50% 30.28 in 10.0 mi SE 10.4 mph - N/A   Overcast
12:35 AM 22.1 °F 10.6 °F 5.9 °F 50% 30.27 in 10.0 mi SE 11.5 mph - N/A   Overcast
12:55 AM 22.1 °F 12.8 °F 6.1 °F 50% 30.27 in 10.0 mi SE 8.1 mph - N/A   Overcast
1:15 AM 22.1 °F 10.6 °F 6.3 °F 51% 30.25 in 10.0 mi SE 11.5 mph - N/A   Overcast
1:35 AM 22.1 °F 11.3 °F 5.9 °F 50% 30.25 in 10.0 mi SE 10.4 mph - N/A   Overcast
1:55 AM 22.1 °F 10.0 °F 6.3 °F 51% 30.24 in 10.0 mi SE 12.7 mph - N/A   Overcast
2:15 AM 22.1 °F 10.6 °F 6.4 °F 51% 30.22 in 10.0 mi SE 11.5 mph - N/A   Overcast
2:35 AM 21.9 °F 9.8 °F 6.8 °F 52% 30.20 in 10.0 mi SE 12.7 mph - N/A   Overcast
2:55 AM 21.7 °F 10.2 °F 7.3 °F 54% 30.20 in 10.0 mi SE 11.5 mph 16.1 mph N/A   Overcast
3:15 AM 21.2 °F 8.9 °F 9.7 °F 61% 30.19 in 10.0 mi SSE 12.7 mph 17.3 mph N/A Snow Light Snow
3:35 AM 20.3 °F 9.0 °F 12.9 °F 73% 30.18 in 7.0 mi SSE 10.4 mph - N/A   Overcast
3:55 AM 19.9 °F 9.3 °F 13.5 °F 76% 30.16 in 10.0 mi SSE 9.2 mph - N/A   Overcast
4:15 AM 19.9 °F 10.1 °F 13.8 °F 77% 30.15 in 10.0 mi SSE 8.1 mph - N/A   Overcast
4:35 AM 20.1 °F 13.6 °F 14.0 °F 77% 30.17 in 10.0 mi South 4.6 mph - N/A   Overcast
4:55 AM 20.3 °F 11.5 °F 14.4 °F 78% 30.15 in 10.0 mi SSE 6.9 mph - N/A   Overcast
5:15 AM 20.3 °F 8.3 °F 14.2 °F 77% 30.15 in 10.0 mi South 11.5 mph - N/A   Overcast
5:35 AM 20.3 °F 8.3 °F 14.9 °F 80% 30.13 in 7.0 mi South 11.5 mph - N/A   Overcast
5:55 AM 20.1 °F 9.5 °F 15.8 °F 83% 30.13 in 7.0 mi South 9.2 mph - N/A Snow Light Snow
6:15 AM 20.1 °F 10.3 °F 16.3 °F 85% 30.13 in 10.0 mi South 8.1 mph - N/A   Overcast
6:35 AM 20.1 °F 10.3 °F 16.3 °F 85% 30.13 in 10.0 mi South 8.1 mph - N/A   Overcast
6:55 AM 20.3 °F 9.8 °F 16.5 °F 85% 30.11 in 10.0 mi South 9.2 mph - N/A   Overcast
7:35 AM 20.3 °F 9.8 °F 16.7 °F 86% 30.10 in 10.0 mi South 9.2 mph - N/A   Overcast
7:55 AM 20.7 °F 10.2 °F 16.7 °F 85% 30.09 in 10.0 mi South 9.2 mph - N/A   Overcast
8:15 AM 20.8 °F 9.7 °F 16.9 °F 85% 30.09 in 10.0 mi South 10.4 mph - N/A   Overcast
8:35 AM 21.4 °F 11.1 °F 17.2 °F 84% 30.09 in 10.0 mi South 9.2 mph - N/A   Overcast
8:55 AM 22.1 °F 12.0 °F 17.8 °F 83% 30.09 in 10.0 mi SSW 9.2 mph - N/A   Overcast
9:15 AM 23.0 °F 12.4 °F 17.1 °F 78% 30.08 in 10.0 mi SSW 10.4 mph - N/A   Overcast
9:35 AM 23.9 °F 12.9 °F 16.7 °F 74% 30.07 in 10.0 mi SW 11.5 mph - N/A   Overcast
9:55 AM 25.0 °F 13.6 °F 16.3 °F 70% 30.06 in 10.0 mi SW 12.7 mph - N/A   Overcast
10:15 AM 25.9 °F 16.0 °F 14.7 °F 63% 30.05 in 10.0 mi WSW 10.4 mph 16.1 mph N/A   Mostly Cloudy
10:35 AM 27.3 °F 16.6 °F 14.2 °F 58% 30.06 in 10.0 mi WSW 12.7 mph - N/A   Scattered Clouds
10:55 AM 28.2 °F 17.2 °F 13.5 °F 54% 30.05 in 10.0 mi WSW 13.8 mph 18.4 mph N/A   Clear
11:15 AM 29.1 °F 18.9 °F 12.7 °F 50% 30.03 in 10.0 mi WSW 12.7 mph 18.4 mph N/A   Clear
11:35 AM 30.0 °F 19.1 °F 12.9 °F 49% 30.02 in 10.0 mi WSW 15.0 mph 18.4 mph N/A   Clear
11:55 AM 30.6 °F 19.8 °F 12.9 °F 48% 30.01 in 10.0 mi WSW 15.0 mph - N/A   Clear
12:15 PM 31.6 °F 21.6 °F 13.3 °F 47% 29.99 in 10.0 mi WSW 13.8 mph 18.4 mph N/A   Clear
12:35 PM 31.8 °F 21.4 °F 13.3 °F 46% 29.99 in 10.0 mi WSW 15.0 mph 21.9 mph N/A   Clear
12:55 PM 32.0 °F 22.1 °F 14.0 °F 48% 29.97 in 10.0 mi WSW 13.8 mph 21.9 mph N/A   Clear
1:15 PM 32.9 °F 23.7 °F 14.0 °F 46% 29.97 in 10.0 mi West 12.7 mph 20.7 mph N/A   Clear
1:35 PM 33.3 °F 22.8 °F 14.0 °F 45% 29.97 in 10.0 mi West 16.1 mph 25.3 mph N/A   Clear
1:55 PM 33.8 °F 23.2 °F 14.7 °F 46% 29.97 in 10.0 mi West 17.3 mph 24.2 mph N/A   Clear
2:15 PM 33.8 °F 22.8 °F 14.7 °F 46% 29.98 in 10.0 mi West 18.4 mph 26.5 mph N/A   Clear
2:35 PM 34.3 °F 23.2 °F 15.3 °F 46% 29.98 in 10.0 mi WNW 19.6 mph 26.5 mph N/A   Clear
2:55 PM 33.6 °F 23.7 °F 16.0 °F 48% 29.99 in 10.0 mi West 15.0 mph 21.9 mph N/A   Scattered Clouds
3:15 PM 31.5 °F 19.4 °F 18.3 °F 58% 30.01 in 10.0 mi West 19.6 mph 28.8 mph N/A   Mostly Cloudy
3:35 PM 29.8 °F 17.3 °F 18.3 °F 62% 30.01 in 10.0 mi WNW 19.6 mph 32.2 mph N/A   Overcast
3:55 PM 29.3 °F 15.3 °F 17.4 °F 61% 30.01 in 10.0 mi WNW 24.2 mph 32.2 mph N/A   Mostly Cloudy
4:15 PM 29.3 °F 19.1 °F 17.6 °F 62% 30.02 in 10.0 mi West 12.7 mph 23.0 mph N/A   Overcast
4:35 PM 29.5 °F 21.1 °F 18.1 °F 63% 30.03 in 10.0 mi West 9.2 mph - N/A   Overcast
4:55 PM 29.3 °F 20.2 °F 18.3 °F 64% 30.02 in 10.0 mi West 10.4 mph 18.4 mph N/A   Mostly Cloudy
5:15 PM 28.9 °F 22.8 °F 18.3 °F 65% 30.03 in 10.0 mi West 5.8 mph - N/A   Scattered Clouds
5:35 PM 29.3 °F 17.7 °F 16.0 °F 58% 30.04 in 10.0 mi WNW 16.1 mph 26.5 mph N/A   Scattered Clouds
5:55 PM 28.9 °F 17.7 °F 12.9 °F 51% 30.05 in 10.0 mi WNW 15.0 mph 25.3 mph N/A   Clear
6:15 PM 28.0 °F 17.5 °F 12.9 °F 53% 30.07 in 10.0 mi WNW 12.7 mph 24.2 mph N/A   Clear
6:35 PM 27.1 °F 16.4 °F 10.4 °F 49% 30.07 in 10.0 mi West 12.7 mph 18.4 mph N/A   Clear
6:55 PM 25.9 °F 16.6 °F 10.4 °F 52% 30.09 in 10.0 mi NW 9.2 mph - N/A   Clear
7:15 PM 25.2 °F 14.4 °F 9.3 °F 51% 30.11 in 10.0 mi NW 11.5 mph 16.1 mph N/A   Clear
7:35 PM 24.3 °F 12.2 °F 7.7 °F 49% 30.11 in 10.0 mi NW 13.8 mph 20.7 mph N/A   Clear
7:55 PM 23.4 °F 11.1 °F 7.7 °F 51% 30.12 in 10.0 mi NW 13.8 mph 21.9 mph N/A   Clear
8:15 PM 22.6 °F 12.6 °F 7.9 °F 53% 30.13 in 10.0 mi WNW 9.2 mph - N/A   Clear
8:35 PM 22.1 °F 11.3 °F 8.4 °F 56% 30.13 in 10.0 mi WNW 10.4 mph 16.1 mph N/A   Clear
8:55 PM 21.7 °F 8.5 °F 8.2 °F 56% 30.14 in 10.0 mi WNW 15.0 mph - N/A   Clear
9:15 PM 21.2 °F 8.9 °F 8.2 °F 57% 30.16 in 10.0 mi NW 12.7 mph - N/A   Clear
9:35 PM 20.3 °F 9.0 °F 8.2 °F 60% 30.17 in 10.0 mi NW 10.4 mph - N/A   Clear
9:55 PM 19.9 °F 8.6 °F 7.9 °F 60% 30.18 in 10.0 mi NW 10.4 mph 16.1 mph N/A   Clear
10:15 PM 19.4 °F 7.2 °F 8.2 °F 62% 30.18 in 10.0 mi NW 11.5 mph - N/A   Clear
10:35 PM 19.0 °F 9.0 °F 7.7 °F 61% 30.19 in 10.0 mi NNW 8.1 mph - N/A   Clear
10:55 PM 18.7 °F 7.0 °F 7.7 °F 62% 30.21 in 10.0 mi NW 10.4 mph - N/A   Clear
11:15 PM 18.3 °F 6.6 °F 7.7 °F 63% 30.22 in 10.0 mi NW 10.4 mph - N/A   Clear
11:35 PM 18.1 °F 7.9 °F 7.2 °F 62% 30.24 in 10.0 mi NNW 8.1 mph - N/A   Clear
11:55 PM 17.4 °F 6.2 °F 7.2 °F 64% 30.24 in 10.0 mi NW 9.2 mph - N/A   Clear